CZ-3B DEB, 40849

Orbit data source: Space-Track

CZ-3B DEB, 40849 is space debris in HEO originally from a launch on Mon, 19 Dec 2011 UTC launched from the Xichang Space Center, China (XSC). Debris objects in space refer to the collection of defunct objects orbiting the Earth. Examples of debris include non-operational satellites, rocket bodies, and fragments generated from explosions, collisions, or faulty payload assembly.

Loading next visibility...
Identifier
40849, 2011-077AE
Orbit
HEO
Country
Flag of CNCN / PRC
Related business
Manufacturer
CALT
Mission
Spacecraft
Bus & Motor
Unknown
Mass
Unknown
Launch date (UTC)
2011-12-19 (14 years ago)
Launch vehicle
Unknown
Launch site
Xichang Space Center, China (XSC)
Object type
Payload
Rocket body
Debris
Shape & HBR
Unknown shape, 0.3 m
Radar Cross Section
Medium (>0.1 m² and <1 m²)

Expand to show TLE details & history
Last TLE update: 2 weeks ago

TLE from 2 weeks ago
0 CZ-3B DEB
1 40849U 11077AE  25296.32429231 -.00000124  00000-0 -82161-3 0  9991
2 40849  26.0012  47.7565 7393252 319.3027   4.5992  1.90635346 87425
Epoch: 2025-10-23T07:46Z
TLE epoch observation values (Epoch: 2025-10-23T07:46:58.855Z)
Latitude
0.00012°
Longitude
-101.03901°
Altitude
1,578.296 km
Speed
9.256 km/s
True Right ascension
03h 10m 45s
True Declination
0° 00' 00"
Sunlit
Object was in full shadow at epoch
Visualization orbit readout
Latitude
Unknown
Longitude
Unknown
Altitude
Unknown
Speed
Unknown
Apparent Right ascension
Unknown
Apparent Declination
Unknown
Sunlit
N/A
Visualization observer readout
Local Sidereal Time
06:06:18
Azimuth
Unknown
Elevation
Unknown
Doppler factor
Unknown
Orbital elements
Apogee altitude
41,415.823 km
Perigee altitude
784.802 km
Semi-major axis
27,478.45 km
Eccentricity
0.73933
Inclination
26.0012°
RAAN
47.7565°
Arg. of periapsis
319.3027°
True anomaly
42.09323°
Mean anomaly
4.5992°
Eccentric anomaly
16.94581°
Mean motion
0.47649 °/min
Orbital period
755.52 mins
BSTAR
-0.00082161
Loading maneuver chart data...
Computing Atmospheric mass density...
Loading historical data...
Loading historical data...
Loading historical data...
Loading historical data...
Loading historical data...
Loading historical data...
Loading historical data...

Documentation

Showing up to 5 results
|